Location: Bergnershof
(48.9468°N, 10.9431°E)
Time: 04:28:13
(UTC+00:00)

OBJECT-B - Pass Details

Date: 03 March 2021
Orbit: 414 x 427 km, 97.0° (Epoch: 09 April)

Event Time Altitude Azimuth Distance (km) Brightness Sun altitude
Exits shadow 18:04:51 16° 72° (ENE) 1,206 2.5 -11.0°
Maximum altitude 18:05:10 16° 65° (ENE) 1,198 2.5 -11.0°
Drops below altitude 10° 18:07:14 10° 25° (NNE) 1,515 3.3 -11.3°
Sets 18:09:46 0° 4° (N) 2,382 4.6 -11.8°
